{"data":{"norad_id":61258,"intl_designator":"2024-175R","name":"STARLINK-32382","alt_names":[],"object_type":"PAYLOAD","status":"ACTIVE","operator":null,"country":"US","launch_date":"2024-09-25","launch_site_code":"AFWTR","launch_vehicle":null,"mission":null,"orbit_class":"UNKNOWN","rcs_meters":null,"size_class":null,"mass_kg":null,"dimensions":null,"purposes":["comms"],"wikipedia_slug":null,"has_3d_model":false,"image_url":null,"decayed_at":null,"tle_current":{"epoch":"2026-05-25T04:00:03.998880Z","epoch_age_seconds":50794,"freshness":"FRESH","line1":"1 61258U 24175R   26145.16671295  .00026197  00000+0  78418-3 0  9991","line2":"2 61258  53.1590 198.7474 0000965  96.6913 258.0341 15.34383207  5757","mean_motion":15.34383207,"eccentricity":9.65e-5,"inclination_deg":53.159,"raan_deg":198.7474,"arg_perigee_deg":96.6913,"mean_anomaly_deg":258.0341,"bstar":0.00078418,"rev_number":575,"period_min":93.848785194636,"perigee_km":462.09300709752,"apogee_km":463.41329889705,"semimajor_km":6840.8901529973,"source":"CELESTRAK","updated_at":"2026-05-25T13:38:19.366932Z"}}}